• In Deutschland
  • Länderverzeichnis
  • Für 7 Tage
  • Wassertemperatur
  • Satellitenkarten
  • Wetterkarte
  • Widgets
  • user-avatar
    Anmelden

    Stündliche Wetter Stepanakert

    Heute, 25 Mai, Donnerstag

    Zeit Temperatur Niederschläge Wind Luftdruck Luftfeuchtigkeit
    00:00 +11°C° 0,1 mm 1 m/S 691 mmHg 80%
    01:00 +11°C° 0 mm 1 m/S 691 mmHg 81%
    02:00 +11°C° 0 mm 1 m/S 691 mmHg 82%
    03:00 +10°C° 0 mm 1 m/S 691 mmHg 83%
    04:00 +12°C° 0 mm 1 m/S 691 mmHg 78%
    05:00 +13°C° 0 mm 1 m/S 692 mmHg 73%
    06:00 +15°C° 0 mm 1 m/S 693 mmHg 68%
    07:00 +16°C° 0 mm 1 m/S 693 mmHg 62%
    08:00 +18°C° 0 mm 2 m/S 693 mmHg 55%
    09:00 +19°C° 0 mm 2 m/S 694 mmHg 49%
    10:00 +20°C° 0,1 mm 3 m/S 693 mmHg 46%
    11:00 +21°C° 0,1 mm 3 m/S 693 mmHg 44%
    12:00 +22°C° 0,1 mm 3 m/S 693 mmHg 41%
    13:00 +24°C° 0,1 mm 3 m/S 693 mmHg 41%
    14:00 +24°C° 0,1 mm 3 m/S 693 mmHg 42%
    15:00 +24°C° 0,1 mm 3 m/S 693 mmHg 42%
    16:00 +23°C° 0,1 mm 2 m/S 693 mmHg 46%
    17:00 +21°C° 0,1 mm 2 m/S 693 mmHg 50%
    18:00 +21°C° 0,1 mm 2 m/S 693 mmHg 54%
    19:00 +18°C° 0 mm 2 m/S 693 mmHg 61%
    20:00 +16°C° 0 mm 2 m/S 693 mmHg 68%
    21:00 +14°C° 0 mm 1 m/S 693 mmHg 74%
    22:00 +13°C° 0 mm 1 m/S 693 mmHg 77%
    23:00 +12°C° 0 mm 1 m/S 693 mmHg 81%

    Morgen, 26 Mai, Freitag

    Zeit Temperatur Niederschläge Wind Luftdruck Luftfeuchtigkeit
    00:00 +11°C° 0 mm 1 m/S 693 mmHg 84%
    01:00 +11°C° 0 mm 1 m/S 693 mmHg 86%
    02:00 +10°C° 0 mm 1 m/S 692 mmHg 88%
    03:00 +10°C° 0 mm 1 m/S 692 mmHg 89%
    04:00 +12°C° 0 mm 1 m/S 693 mmHg 85%
    05:00 +13°C° 0 mm 1 m/S 693 mmHg 80%
    06:00 +14°C° 0 mm 0 m/S 694 mmHg 76%
    07:00 +16°C° 0 mm 1 m/S 694 mmHg 69%
    08:00 +19°C° 0 mm 1 m/S 694 mmHg 62%
    09:00 +20°C° 0 mm 2 m/S 694 mmHg 55%
    10:00 +21°C° 0 mm 2 m/S 694 mmHg 52%
    11:00 +23°C° 0 mm 2 m/S 693 mmHg 48%
    12:00 +24°C° 0 mm 3 m/S 693 mmHg 45%
    13:00 +25°C° 0,1 mm 3 m/S 693 mmHg 45%
    14:00 +25°C° 0,1 mm 3 m/S 692 mmHg 45%
    15:00 +25°C° 0,1 mm 3 m/S 692 mmHg 44%
    16:00 +24°C° 0 mm 2 m/S 692 mmHg 50%
    17:00 +23°C° 0 mm 2 m/S 691 mmHg 55%
    18:00 +21°C° 0 mm 2 m/S 691 mmHg 60%
    19:00 +21°C° 0 mm 1 m/S 691 mmHg 66%
    20:00 +19°C° 0 mm 1 m/S 691 mmHg 72%
    21:00 +16°C° 0 mm 1 m/S 691 mmHg 78%
    22:00 +15°C° 0 mm 1 m/S 691 mmHg 81%
    23:00 +14°C° 0 mm 1 m/S 691 mmHg 84%

    übermorgen, 27 Mai, Samstag

    Zeit Temperatur Niederschläge Wind Luftdruck Luftfeuchtigkeit
    00:00 +13°C° 0 mm 1 m/S 691 mmHg 87%
    01:00 +13°C° 0 mm 1 m/S 691 mmHg 88%
    02:00 +12°C° 0 mm 1 m/S 691 mmHg 89%
    03:00 +12°C° 0 mm 1 m/S 690 mmHg 89%
    04:00 +13°C° 0 mm 1 m/S 691 mmHg 85%
    05:00 +15°C° 0 mm 1 m/S 691 mmHg 80%
    06:00 +16°C° 0 mm 1 m/S 691 mmHg 76%
    07:00 +19°C° 0 mm 1 m/S 691 mmHg 68%
    08:00 +21°C° 0 mm 1 m/S 692 mmHg 61%
    09:00 +23°C° 0 mm 2 m/S 692 mmHg 54%
    10:00 +24°C° 0,3 mm 2 m/S 691 mmHg 51%
    11:00 +25°C° 0,3 mm 3 m/S 691 mmHg 49%
    12:00 +26°C° 0,3 mm 3 m/S 691 mmHg 46%
    13:00 +26°C° 0,5 mm 3 m/S 690 mmHg 46%
    14:00 +26°C° 0,5 mm 3 m/S 689 mmHg 46%
    15:00 +27°C° 0,5 mm 3 m/S 689 mmHg 45%
    16:00 +26°C° 0,7 mm 3 m/S 689 mmHg 50%
    17:00 +25°C° 0,7 mm 2 m/S 688 mmHg 55%
    18:00 +23°C° 0,7 mm 2 m/S 688 mmHg 60%
    19:00 +20°C° 0,5 mm 2 m/S 688 mmHg 68%
    20:00 +19°C° 0,5 mm 1 m/S 689 mmHg 75%
    21:00 +16°C° 0,5 mm 1 m/S 689 mmHg 83%
    22:00 +15°C° 0 mm 1 m/S 689 mmHg 83%
    23:00 +15°C° 0 mm 1 m/S 689 mmHg 83%

    28 Mai, Sonntag

    Zeit Temperatur Niederschläge Wind Luftdruck Luftfeuchtigkeit
    00:00 +14°C° 0 mm 1 m/S 689 mmHg 83%
    01:00 +14°C° 0 mm 1 m/S 689 mmHg 82%
    02:00 +14°C° 0 mm 1 m/S 689 mmHg 81%
    03:00 +14°C° 0 mm 2 m/S 689 mmHg 80%
    04:00 +15°C° 0 mm 2 m/S 689 mmHg 75%
    05:00 +16°C° 0 mm 2 m/S 690 mmHg 70%
    06:00 +17°C° 0 mm 2 m/S 690 mmHg 65%
    07:00 +19°C° 0 mm 2 m/S 691 mmHg 56%
    08:00 +23°C° 0 mm 2 m/S 691 mmHg 46%
    09:00 +25°C° 0 mm 2 m/S 691 mmHg 37%
    10:00 +26°C° 0 mm 3 m/S 691 mmHg 34%
    11:00 +27°C° 0 mm 3 m/S 691 mmHg 32%
    12:00 +29°C° 0 mm 3 m/S 690 mmHg 30%
    13:00 +29°C° 0 mm 3 m/S 690 mmHg 29%
    14:00 +29°C° 0 mm 3 m/S 690 mmHg 29%
    15:00 +30°C° 0 mm 3 m/S 690 mmHg 29%
    16:00 +28°C° 0 mm 3 m/S 690 mmHg 33%
    17:00 +27°C° 0 mm 3 m/S 690 mmHg 38%
    18:00 +26°C° 0 mm 3 m/S 690 mmHg 43%
    19:00 +23°C° 0 mm 2 m/S 690 mmHg 50%
    20:00 +19°C° 0 mm 2 m/S 690 mmHg 57%
    21:00 +16°C° 0 mm 1 m/S 691 mmHg 64%
    22:00 +16°C° 0,2 mm 1 m/S 691 mmHg 67%
    23:00 +15°C° 0,2 mm 1 m/S 691 mmHg 69%

    29 Mai, Montag

    Zeit Temperatur Niederschläge Wind Luftdruck Luftfeuchtigkeit
    00:00 +14°C° 0,2 mm 1 m/S 692 mmHg 71%
    01:00 +14°C° 0 mm 1 m/S 692 mmHg 73%
    02:00 +13°C° 0 mm 1 m/S 692 mmHg 75%
    03:00 +13°C° 0 mm 1 m/S 692 mmHg 77%
    04:00 +14°C° 0 mm 1 m/S 693 mmHg 74%
    05:00 +15°C° 0 mm 1 m/S 694 mmHg 70%
    06:00 +18°C° 0 mm 1 m/S 695 mmHg 67%
    07:00 +18°C° 0 mm 2 m/S 695 mmHg 62%
    08:00 +20°C° 0 mm 2 m/S 695 mmHg 56%
    09:00 +22°C° 0 mm 3 m/S 696 mmHg 51%
    10:00 +22°C° 0,2 mm 4 m/S 695 mmHg 52%
    11:00 +22°C° 0,2 mm 4 m/S 695 mmHg 53%
    12:00 +22°C° 0,2 mm 5 m/S 695 mmHg 54%
    13:00 +22°C° 0,4 mm 5 m/S 695 mmHg 56%
    14:00 +22°C° 0,4 mm 4 m/S 694 mmHg 59%
    15:00 +21°C° 0,4 mm 4 m/S 694 mmHg 61%
    16:00 +20°C° 0,4 mm 4 m/S 694 mmHg 65%
    17:00 +19°C° 0,4 mm 4 m/S 694 mmHg 69%
    18:00 +18°C° 0,4 mm 3 m/S 695 mmHg 73%
    19:00 +17°C° 0,3 mm 3 m/S 695 mmHg 77%
    20:00 +14°C° 0,3 mm 3 m/S 695 mmHg 82%
    21:00 +14°C° 0,3 mm 2 m/S 695 mmHg 86%
    22:00 +13°C° 0,1 mm 2 m/S 695 mmHg 87%
    23:00 +12°C° 0,1 mm 2 m/S 695 mmHg 87%

    30 Mai, Dienstag

    Zeit Temperatur Niederschläge Wind Luftdruck Luftfeuchtigkeit
    00:00 +12°C° 0,1 mm 1 m/S 695 mmHg 88%
    01:00 +11°C° 0 mm 1 m/S 695 mmHg 88%
    02:00 +11°C° 0 mm 1 m/S 694 mmHg 89%
    03:00 +11°C° 0 mm 1 m/S 694 mmHg 89%
    04:00 +12°C° 0 mm 1 m/S 694 mmHg 86%
    05:00 +13°C° 0 mm 1 m/S 694 mmHg 83%
    06:00 +14°C° 0 mm 1 m/S 695 mmHg 80%
    07:00 +15°C° 0 mm 1 m/S 694 mmHg 74%
    08:00 +18°C° 0 mm 1 m/S 694 mmHg 68%
    09:00 +18°C° 0 mm 2 m/S 694 mmHg 62%
    10:00 +20°C° 0 mm 2 m/S 694 mmHg 58%
    11:00 +21°C° 0 mm 2 m/S 693 mmHg 53%
    12:00 +24°C° 0 mm 2 m/S 693 mmHg 49%
    13:00 +24°C° 0 mm 2 m/S 692 mmHg 48%
    14:00 +25°C° 0 mm 3 m/S 692 mmHg 47%
    15:00 +25°C° 0 mm 3 m/S 691 mmHg 46%
    16:00 +25°C° 0,1 mm 2 m/S 691 mmHg 49%
    17:00 +24°C° 0,1 mm 2 m/S 691 mmHg 52%
    18:00 +23°C° 0,1 mm 1 m/S 691 mmHg 56%
    19:00 +21°C° 0,1 mm 1 m/S 691 mmHg 62%
    20:00 +19°C° 0,1 mm 1 m/S 691 mmHg 69%
    21:00 +16°C° 0,1 mm 1 m/S 691 mmHg 75%
    22:00 +16°C° 0 mm 2 m/S 691 mmHg 74%
    23:00 +16°C° 0 mm 2 m/S 691 mmHg 72%
    Mehr zeigen